Location: Hilton Head Island
(32.2163°N, 80.7526°W)
Time: 03:01:04
(UTC-05:00)

Vanguard 2 - All Passes

Search period start: 17 February 2026 00:00
Search period end: 27 February 2026 00:00
Orbit: 553 x 2897 km, 32.9° (Epoch: 15 February)

Date Brightness Start Highest point End Pass type
(mag) Time Alt. Az. Time Alt. Az. Time Alt. Az.
17 Feb - 03:09:47 10° S 03:13:56 14° SSE 03:17:19 10° SE visible
17 Feb - 05:16:18 10° SW 05:22:33 39° SSE 05:26:51 10° E visible
17 Feb - 07:25:30 10° W 07:30:19 89° NNW 07:34:16 10° E daylight
17 Feb - 09:34:01 10° W 09:37:59 83° S 09:42:23 10° ESE daylight
17 Feb - 11:41:48 10° W 11:45:37 29° SSW 11:50:42 10° SE daylight
18 Feb - 03:19:50 10° SSW 03:26:03 20° SSE 03:30:38 10° ESE visible
18 Feb - 05:27:59 10° WSW 05:34:33 52° SSE 05:38:59 10° E visible
18 Feb - 07:37:35 10° W 07:42:21 82° N 07:46:18 10° E daylight
18 Feb - 09:46:03 10° W 09:49:58 67° SSW 09:54:23 10° ESE daylight
18 Feb - 11:54:15 10° WSW 11:57:38 21° SSW 12:01:54 10° SSE daylight
19 Feb - 03:30:37 10° SSW 03:38:09 28° SSE 03:43:18 10° E visible
19 Feb - 05:39:51 10° WSW 05:46:34 66° SSE 05:51:02 10° E visible
19 Feb - 07:49:40 10° W 07:54:23 81° N 07:58:20 10° E daylight
19 Feb - 09:58:07 10° W 10:01:57 50° SSW 10:06:15 10° ESE daylight
19 Feb - 12:07:11 10° WSW 12:09:39 14° SSW 12:12:32 10° S daylight
20 Feb - 01:35:45 10° S 01:40:48 14° SSE 01:44:59 10° SE night (unlit)
20 Feb - 03:41:49 10° SW 03:50:13 36° SSE 03:55:39 10° E visible
20 Feb - 05:51:50 10° WSW 05:58:34 79° SSE 06:03:02 10° E visible
20 Feb - 08:01:45 10° W 08:06:25 85° N 08:10:22 10° E daylight
20 Feb - 10:10:15 10° W 10:13:54 36° SSW 10:17:59 10° SE daylight
21 Feb - 01:45:13 10° SSW 01:52:57 20° SSE 01:58:43 10° ESE night (unlit)
21 Feb - 03:53:17 10° SW 04:02:16 47° SSE 04:07:51 10° E visible
21 Feb - 06:03:54 10° W 06:10:35 89° S 06:15:02 10° E visible
21 Feb - 08:13:48 10° W 08:18:26 85° S 08:22:23 10° ESE daylight
21 Feb - 10:22:31 10° W 10:25:49 25° SSW 10:29:28 10° SSE daylight
22 Feb - 01:55:36 10° SSW 02:05:04 27° SSE 02:11:38 10° E night (unlit)
22 Feb - 04:04:58 10° WSW 04:14:18 58° SSE 04:19:57 10° E visible
22 Feb - 06:16:01 10° W 06:22:37 85° N 06:27:03 10° E visible
22 Feb - 08:25:51 10° W 08:30:25 70° SSW 08:34:20 10° ESE daylight
22 Feb - 10:35:03 10° WSW 10:37:44 17° SSW 10:40:37 10° SSE daylight
23 Feb - 00:02:01 10° S 00:06:56 13° SSE 00:11:15 10° SE night (unlit)
23 Feb - 02:06:28 10° SSW 02:17:11 34° SSE 02:24:10 10° E visible
23 Feb - 04:16:51 10° WSW 04:26:19 70° SSE 04:31:58 10° E visible
23 Feb - 06:28:08 10° W 06:34:39 83° N 06:39:02 10° E visible
23 Feb - 08:37:56 10° W 08:42:22 53° SSW 08:46:13 10° ESE daylight
23 Feb - 10:48:31 10° SW 10:49:38 11° SSW 10:50:46 10° SSW daylight
24 Feb - 00:10:32 10° S 00:19:05 18° SSE 00:25:53 10° ESE night (unlit)
24 Feb - 02:17:39 10° SW 02:29:14 43° SSE 02:36:29 10° E visible
24 Feb - 04:28:50 10° WSW 04:38:20 80° SSE 04:43:58 10° E visible
24 Feb - 06:40:15 10° W 06:46:41 85° N 06:51:04 10° E daylight
24 Feb - 08:50:04 10° W 08:54:15 38° SSW 08:57:56 10° SE daylight
25 Feb - 00:20:22 10° SSW 00:31:11 24° SSE 00:39:12 10° E night (unlit)
25 Feb - 02:29:07 10° SW 02:41:16 53° SSE 02:48:39 10° E visible
25 Feb - 04:40:56 10° W 04:50:22 88° S 04:55:58 10° E visible
25 Feb - 06:52:22 10° W 06:58:43 87° S 07:03:03 10° E daylight
25 Feb - 09:02:20 10° W 09:06:06 27° SSW 09:09:28 10° SSE daylight
26 Feb - 00:30:49 10° SSW 00:43:15 31° SSE 00:52:00 10° E night (unlit)
26 Feb - 02:40:47 10° WSW 02:53:18 63° SSE 03:00:43 10° E visible
26 Feb - 04:53:04 10° W 05:02:24 86° N 05:07:58 10° E visible
26 Feb - 07:04:27 10° W 07:10:42 75° SSW 07:14:59 10° ESE daylight
26 Feb - 09:14:51 10° WSW 09:17:53 18° SSW 09:20:40 10° SSE daylight
26 Feb - 22:36:43 10° S 22:44:30 15° SE 22:51:18 10° ESE visible
